| time (UTC) | temp F | wind direction | speed MPH | gust MPH | rain 1hr in | rain 24hr in | rain mn in | humidity % | barometer mb |
| 20260904210017 | 73 | 215 | 4.0 | 7.0 | 0.00 | 0.00 | 0.00 | 56 | 1016.5 |
| 20260904205017 | 73 | 210 | 4.0 | 8.0 | 0.00 | 0.00 | 0.00 | 56 | 1016.5 |
| 20260904204017 | 74 | 209 | 4.0 | 9.0 | 0.00 | 0.00 | 0.00 | 56 | 1016.5 |
| 20260904203015 | 74 | 207 | 4.0 | 9.0 | 0.00 | 0.00 | 0.00 | 56 | 1016.5 |
| 20260904202015 | 74 | 211 | 4.0 | 8.0 | 0.00 | 0.00 | 0.00 | 55 | 1016.5 |
| 20260904201017 | 73 | 205 | 5.0 | 8.0 | 0.00 | 0.00 | 0.00 | 55 | 1016.4 |
| 20260904200016 | 73 | 199 | 4.0 | 9.0 | 0.00 | 0.00 | 0.00 | 56 | 1016.4 |
| 20260904195057 | 73 | 188 | 3.0 | 7.0 | 0.00 | 0.00 | 0.00 | 56 | 1016.4 |
| 20260904194021 | 73 | 192 | 3.0 | 6.0 | 0.00 | 0.00 | 0.00 | 56 | 1016.4 |
| 20260904193017 | 74 | 201 | 4.0 | 5.0 | 0.00 | 0.00 | 0.00 | 55 | 1016.4 |
| 20260904192016 | 74 | 207 | 3.0 | 6.0 | 0.00 | 0.00 | 0.00 | 54 | 1016.4 |
| 20260904191015 | 75 | 210 | 3.0 | 5.0 | 0.00 | 0.00 | 0.00 | 54 | 1016.3 |
| 20260904190017 | 75 | 225 | 3.0 | 7.0 | 0.00 | 0.00 | 0.00 | 54 | 1016.2 |
| 20260904185026 | 75 | 229 | 3.0 | 6.0 | 0.00 | 0.00 | 0.00 | 52 | 1016.2 |
| 20260904184017 | 76 | 217 | 4.0 | 10.0 | 0.00 | 0.00 | 0.00 | 52 | 1016.2 |
| 20260904183016 | 76 | 189 | 2.0 | 5.0 | 0.00 | 0.00 | 0.00 | 52 | 1016.1 |
| 20260904182016 | 77 | 213 | 3.0 | 6.0 | 0.00 | 0.00 | 0.00 | 50 | 1016.0 |
| 20260904181036 | 77 | 223 | 3.0 | 6.0 | 0.00 | 0.00 | 0.00 | 49 | 1015.8 |
| 20260904180016 | 79 | 225 | 4.0 | 8.0 | 0.00 | 0.00 | 0.00 | 47 | 1015.7 |
| 20260904175101 | 79 | 228 | 4.0 | 9.0 | 0.00 | 0.00 | 0.00 | 46 | 1015.5 |
| 20260904174017 | 80 | 222 | 7.0 | 16.0 | 0.00 | 0.00 | 0.00 | 45 | 1015.4 |
| 20260904173017 | 81 | 234 | 4.0 | 11.0 | 0.00 | 0.00 | 0.00 | 43 | 1015.2 |
| 20260904172016 | 82 | 231 | 7.0 | 15.0 | 0.00 | 0.00 | 0.00 | 41 | 1015.2 |
| 20260904171016 | 82 | 230 | 9.0 | 19.0 | 0.00 | 0.00 | 0.00 | 41 | 1015.1 |
| 20260904170017 | 83 | 239 | 6.0 | 15.0 | 0.00 | 0.00 | 0.00 | 42 | 1015.1 |
| 20260904165017 | 84 | 239 | 4.0 | 9.0 | 0.00 | 0.00 | 0.00 | 40 | 1015.0 |
| 20260904164019 | 84 | 244 | 7.0 | 13.0 | 0.00 | 0.00 | 0.00 | 39 | 1015.0 |
| 20260904163017 | 85 | 234 | 6.0 | 15.0 | 0.00 | 0.00 | 0.00 | 39 | 1015.1 |
| 20260904162018 | 85 | 246 | 5.0 | 12.0 | 0.00 | 0.00 | 0.00 | 38 | 1015.1 |
| 20260904161018 | 86 | 236 | 7.0 | 16.0 | 0.00 | 0.00 | 0.00 | 37 | 1015.1 |
| 20260904160016 | 86 | 249 | 8.0 | 16.0 | 0.00 | 0.00 | 0.00 | 37 | 1015.2 |
| 20260904155030 | 86 | 251 | 8.0 | 14.0 | 0.00 | 0.00 | 0.00 | 36 | 1015.3 |
| 20260904154036 | 87 | 234 | 7.0 | 15.0 | 0.00 | 0.00 | 0.00 | 35 | 1015.3 |
| 20260904153041 | 87 | 234 | 6.0 | 12.0 | 0.00 | 0.00 | 0.00 | 35 | 1015.4 |
| 20260904152015 | 87 | 234 | 9.0 | 16.0 | 0.00 | 0.00 | 0.00 | 34 | 1015.4 |
| 20260904151017 | 88 | 231 | 10.0 | 19.0 | 0.00 | 0.00 | 0.00 | 33 | 1015.4 |
| 20260904150015 | 88 | 233 | 10.0 | 18.0 | 0.00 | 0.00 | 0.00 | 33 | 1015.5 |
| 20260904145017 | 88 | 246 | 9.0 | 18.0 | 0.00 | 0.00 | 0.00 | 33 | 1015.6 |
| 20260904144018 | 89 | 235 | 8.0 | 16.0 | 0.00 | 0.00 | 0.00 | 33 | 1015.7 |
| 20260904143036 | 89 | 229 | 8.0 | 16.0 | 0.00 | 0.00 | 0.00 | 33 | 1015.8 |
| 20260904142017 | 88 | 233 | 10.0 | 17.0 | 0.00 | 0.00 | 0.00 | 33 | 1015.9 |
| 20260904141017 | 89 | 229 | 8.0 | 15.0 | 0.00 | 0.00 | 0.00 | 33 | 1015.9 |
| 20260904140039 | 89 | 233 | 11.0 | 21.0 | 0.00 | 0.00 | 0.00 | 33 | 1016.0 |
| 20260904135016 | 89 | 246 | 8.0 | 15.0 | 0.00 | 0.00 | 0.00 | 33 | 1016.0 |
| 20260904134017 | 89 | 243 | 10.0 | 19.0 | 0.00 | 0.00 | 0.00 | 33 | 1016.1 |
| 20260904133017 | 88 | 231 | 9.0 | 16.0 | 0.00 | 0.00 | 0.00 | 34 | 1016.3 |
| 20260904132035 | 88 | 225 | 10.0 | 19.0 | 0.00 | 0.00 | 0.00 | 37 | 1016.3 |
| 20260904131057 | 88 | 225 | 9.0 | 16.0 | 0.00 | 0.00 | 0.00 | 37 | 1016.6 |
| 20260904130016 | 88 | 219 | 10.0 | 20.0 | 0.00 | 0.00 | 0.00 | 37 | 1016.9 |
| 20260904125016 | 88 | 227 | 9.0 | 15.0 | 0.00 | 0.00 | 0.00 | 37 | 1017.0 |
| 20260904124036 | 87 | 220 | 9.0 | 15.0 | 0.00 | 0.00 | 0.00 | 38 | 1017.2 |
| 20260904123016 | 87 | 217 | 8.0 | 13.0 | 0.00 | 0.00 | 0.00 | 39 | 1017.3 |
| 20260904122017 | 87 | 226 | 8.0 | 15.0 | 0.00 | 0.00 | 0.00 | 39 | 1017.4 |
| 20260904121015 | 86 | 224 | 9.0 | 20.0 | 0.00 | 0.00 | 0.00 | 40 | 1017.6 |
| 20260904120018 | 86 | 216 | 9.0 | 16.0 | 0.00 | 0.00 | 0.00 | 42 | 1017.8 |
| 20260904115016 | 85 | 217 | 7.0 | 11.0 | 0.00 | 0.00 | 0.00 | 42 | 1018.1 |
| 20260904114017 | 85 | 230 | 5.0 | 11.0 | 0.00 | 0.00 | 0.00 | 43 | 1018.2 |
| 20260904113016 | 85 | 223 | 8.0 | 16.0 | 0.00 | 0.00 | 0.00 | 43 | 1018.4 |
| 20260904112016 | 85 | 264 | 7.0 | 14.0 | 0.00 | 0.00 | 0.00 | 44 | 1018.5 |
| 20260904111043 | 84 | 225 | 6.0 | 12.0 | 0.00 | 0.00 | 0.00 | 44 | 1018.6 |
| 20260904110015 | 83 | 236 | 7.0 | 14.0 | 0.00 | 0.00 | 0.00 | 44 | 1018.9 |
| 20260904105017 | 83 | 238 | 8.0 | 16.0 | 0.00 | 0.00 | 0.00 | 44 | 1019.0 |
| 20260904104029 | 83 | 229 | 8.0 | 15.0 | 0.00 | 0.00 | 0.00 | 45 | 1019.2 |
| 20260904103018 | 82 | 224 | 10.0 | 19.0 | 0.00 | 0.00 | 0.00 | 44 | 1019.5 |
| 20260904102015 | 82 | 228 | 7.0 | 14.0 | 0.00 | 0.00 | 0.00 | 46 | 1019.7 |
| 20260904101018 | 81 | 220 | 9.0 | 16.0 | 0.00 | 0.00 | 0.00 | 46 | 1019.8 |
| 20260904100016 | 81 | 234 | 9.0 | 20.0 | 0.00 | 0.00 | 0.00 | 46 | 1019.9 |
| 20260904095018 | 81 | 239 | 6.0 | 16.0 | 0.00 | 0.00 | 0.00 | 49 | 1020.1 |
| 20260904094039 | 79 | 232 | 4.0 | 10.0 | 0.00 | 0.00 | 0.00 | 51 | 1020.2 |
| 20260904093016 | 79 | 214 | 7.0 | 14.0 | 0.00 | 0.00 | 0.00 | 51 | 1020.4 |
| 20260904092039 | 79 | 224 | 4.0 | 9.0 | 0.00 | 0.00 | 0.00 | 53 | 1020.6 |
| 20260904091016 | 78 | 234 | 5.0 | 9.0 | 0.00 | 0.00 | 0.00 | 54 | 1020.7 |
| 20260904090020 | 77 | 217 | 4.0 | 9.0 | 0.00 | 0.00 | 0.00 | 54 | 1020.9 |
| 20260904085016 | 77 | 234 | 3.0 | 5.0 | 0.00 | 0.00 | 0.00 | 54 | 1020.9 |
| 20260904084017 | 77 | 234 | 4.0 | 9.0 | 0.00 | 0.00 | 0.00 | 55 | 1020.9 |
| 20260904083039 | 76 | 234 | 3.0 | 9.0 | 0.00 | 0.00 | 0.00 | 57 | 1021.0 |
| 20260904082015 | 74 | 215 | 6.0 | 11.0 | 0.00 | 0.00 | 0.00 | 57 | 1021.1 |
| 20260904081016 | 74 | 213 | 4.0 | 11.0 | 0.00 | 0.00 | 0.00 | 58 | 1021.1 |
| 20260904080019 | 73 | 226 | 5.0 | 10.0 | 0.00 | 0.00 | 0.00 | 60 | 1021.2 |
| 20260904075118 | 72 | 215 | 4.0 | 9.0 | 0.00 | 0.00 | 0.00 | 61 | 1021.2 |
| 20260904074017 | 71 | 226 | 5.0 | 11.0 | 0.00 | 0.00 | 0.00 | 61 | 1021.3 |
| 20260904073017 | 71 | 226 | 4.0 | 11.0 | 0.00 | 0.00 | 0.00 | 62 | 1021.3 |
| 20260904072016 | 70 | 217 | 5.0 | 13.0 | 0.00 | 0.00 | 0.00 | 62 | 1021.2 |
| 20260904071016 | 69 | 210 | 4.0 | 10.0 | 0.00 | 0.00 | 0.00 | 64 | 1021.2 |
| 20260904070017 | 69 | 209 | 5.0 | 13.0 | 0.00 | 0.00 | 0.00 | 65 | 1021.3 |
| 20260904065036 | 68 | 205 | 4.0 | 9.0 | 0.00 | 0.00 | 0.00 | 65 | 1021.4 |
| 20260904064019 | 68 | 204 | 4.0 | 9.0 | 0.00 | 0.00 | 0.00 | 67 | 1021.4 |
| 20260904063037 | 67 | 196 | 4.0 | 8.0 | 0.00 | 0.00 | 0.00 | 67 | 1021.4 |
| 20260904062038 | 67 | 196 | 5.0 | 9.0 | 0.00 | 0.00 | 0.00 | 68 | 1021.4 |
| 20260904061016 | 66 | 189 | 5.0 | 9.0 | 0.00 | 0.00 | 0.00 | 69 | 1021.5 |
| 20260904060016 | 65 | 190 | 4.0 | 8.0 | 0.00 | 0.00 | 0.00 | 70 | 1021.5 |
| 20260904055019 | 64 | 192 | 3.0 | 5.0 | 0.00 | 0.00 | 0.00 | 72 | 1021.5 |
| 20260904054018 | 64 | 191 | 2.0 | 5.0 | 0.00 | 0.00 | 0.00 | 73 | 1021.5 |
| 20260904053039 | 65 | 185 | 2.0 | 3.0 | 0.00 | 0.00 | 0.00 | 72 | 1021.5 |
| 20260904052017 | 64 | 220 | 2.0 | 4.0 | 0.00 | 0.00 | 0.00 | 71 | 1021.5 |
| 20260904051041 | 64 | 196 | 3.0 | 5.0 | 0.00 | 0.00 | 0.00 | 72 | 1021.5 |
| 20260904050016 | 64 | 254 | 2.0 | 3.0 | 0.00 | 0.00 | 0.00 | 72 | 1021.5 |
| 20260904045015 | 64 | 251 | 2.0 | 6.0 | 0.00 | 0.00 | 0.00 | 72 | 1021.4 |
| 20260904044015 | 63 | 192 | 2.0 | 6.0 | 0.00 | 0.00 | 0.00 | 72 | 1021.4 |
| 20260904043016 | 63 | 197 | 2.0 | 5.0 | 0.00 | 0.00 | 0.00 | 73 | 1021.5 |
| 20260904042019 | 63 | 205 | 2.0 | 4.0 | 0.00 | 0.00 | 0.00 | 73 | 1021.5 |
| 20260904041016 | 64 | 204 | 2.0 | 4.0 | 0.00 | 0.00 | 0.00 | 71 | 1021.6 |
| 20260904040018 | 64 | 194 | 2.0 | 5.0 | 0.00 | 0.00 | 0.00 | 71 | 1021.6 |
| 20260904035041 | 64 | 207 | 2.0 | 5.0 | 0.00 | 0.00 | 0.00 | 70 | 1021.7 |
| 20260904034016 | 65 | 198 | 2.0 | 5.0 | 0.00 | 0.00 | 0.00 | 69 | 1021.8 |
| 20260904033035 | 66 | 208 | 2.0 | 4.0 | 0.00 | 0.00 | 0.00 | 68 | 1021.8 |
| 20260904032015 | 66 | 212 | 3.0 | 5.0 | 0.00 | 0.00 | 0.00 | 67 | 1021.7 |
| 20260904031016 | 67 | 216 | 3.0 | 5.0 | 0.00 | 0.00 | 0.00 | 67 | 1021.8 |
| 20260904030016 | 67 | 216 | 3.0 | 7.0 | 0.00 | 0.00 | 0.00 | 66 | 1021.7 |
| 20260904025017 | 67 | 215 | 3.0 | 6.0 | 0.00 | 0.00 | 0.00 | 66 | 1021.8 |
| 20260904024018 | 67 | 209 | 3.0 | 6.0 | 0.00 | 0.00 | 0.00 | 66 | 1021.8 |
| 20260904023024 | 67 | 209 | 3.0 | 6.0 | 0.00 | 0.00 | 0.00 | 66 | 1022.0 |
| 20260904022037 | 67 | 205 | 3.0 | 6.0 | 0.00 | 0.00 | 0.00 | 66 | 1022.0 |
| 20260904021016 | 67 | 206 | 3.0 | 6.0 | 0.00 | 0.00 | 0.00 | 66 | 1021.9 |
| 20260904020018 | 67 | 204 | 5.0 | 9.0 | 0.00 | 0.00 | 0.00 | 66 | 1021.9 |
| 20260904015016 | 67 | 204 | 4.0 | 9.0 | 0.00 | 0.00 | 0.00 | 66 | 1022.0 |
| 20260904014038 | 67 | 205 | 4.0 | 8.0 | 0.00 | 0.00 | 0.00 | 67 | 1022.1 |
| 20260904013038 | 67 | 205 | 4.0 | 7.0 | 0.00 | 0.00 | 0.00 | 67 | 1022.1 |
| 20260904012016 | 67 | 204 | 4.0 | 10.0 | 0.00 | 0.00 | 0.00 | 67 | 1022.2 |
| 20260904011017 | 67 | 203 | 4.0 | 7.0 | 0.00 | 0.00 | 0.00 | 68 | 1022.3 |
| 20260904010016 | 67 | 200 | 3.0 | 7.0 | 0.00 | 0.00 | 0.00 | 68 | 1022.3 |
| 20260904005018 | 67 | 204 | 3.0 | 7.0 | 0.00 | 0.00 | 0.00 | 69 | 1022.2 |
| 20260904004018 | 67 | 201 | 3.0 | 6.0 | 0.00 | 0.00 | 0.00 | 69 | 1022.3 |
| 20260904003019 | 67 | 202 | 3.0 | 6.0 | 0.00 | 0.00 | 0.00 | 69 | 1022.4 |
| 20260904002058 | 67 | 199 | 2.0 | 4.0 | 0.00 | 0.00 | 0.00 | 69 | 1022.4 |
| 20260904001037 | 67 | 199 | 3.0 | 6.0 | 0.00 | 0.00 | 0.00 | 69 | 1022.5 |
| 20260904000036 | 67 | 192 | 3.0 | 6.0 | 0.00 | 0.00 | 0.00 | 69 | 1022.5 |
| 20260903235037 | 67 | 187 | 3.0 | 5.0 | 0.00 | 0.00 | 0.00 | 69 | 1022.6 |
| 20260903234017 | 67 | 203 | 2.0 | 5.0 | 0.00 | 0.00 | 0.00 | 68 | 1022.7 |
| 20260903233016 | 67 | 199 | 3.0 | 6.0 | 0.00 | 0.00 | 0.00 | 68 | 1022.9 |
| 20260903232019 | 67 | 197 | 3.0 | 7.0 | 0.00 | 0.00 | 0.00 | 68 | 1022.8 |
| 20260903231016 | 67 | 185 | 2.0 | 4.0 | 0.00 | 0.00 | 0.00 | 68 | 1022.8 |
| 20260903230018 | 67 | 192 | 2.0 | 6.0 | 0.00 | 0.00 | 0.00 | 68 | 1022.8 |
| 20260903225016 | 67 | 191 | 3.0 | 7.0 | 0.00 | 0.00 | 0.00 | 68 | 1022.9 |
| 20260903224016 | 67 | 194 | 2.0 | 5.0 | 0.00 | 0.00 | 0.00 | 68 | 1022.9 |
| 20260903223017 | 67 | 204 | 3.0 | 5.0 | 0.00 | 0.00 | 0.00 | 68 | 1022.9 |
| 20260903222018 | 66 | 202 | 2.0 | 4.0 | 0.00 | 0.00 | 0.00 | 69 | 1023.0 |
| 20260903221019 | 66 | 195 | 3.0 | 6.0 | 0.00 | 0.00 | 0.00 | 70 | 1023.1 |
| 20260903220016 | 65 | 200 | 3.0 | 5.0 | 0.00 | 0.00 | 0.00 | 73 | 1023.1 |
| 20260903215037 | 65 | 205 | 3.0 | 5.0 | 0.00 | 0.00 | 0.00 | 72 | 1023.0 |
| 20260903214016 | 66 | 206 | 2.0 | 4.0 | 0.00 | 0.00 | 0.00 | 71 | 1022.9 |
| 20260903213016 | 66 | 201 | 2.0 | 6.0 | 0.00 | 0.00 | 0.00 | 69 | 1022.7 |
| 20260903212018 | 66 | 191 | 3.0 | 6.0 | 0.00 | 0.00 | 0.00 | 68 | 1022.6 |
| 20260903211038 | 67 | 192 | 2.0 | 5.0 | 0.00 | 0.00 | 0.00 | 68 | 1022.6 |